Location: ??????????
(54.4061°N, 22.6114°E)
Time: 05:59:21
(UTC+00:00)

Cosmos 1763 Rocket - Pass Details

Date: 23 October 2019
Orbit: 734 x 779 km, 74.0° (Epoch: 21 November)

Event Time Altitude Azimuth Distance (km) Brightness Sun altitude
Rises 16:59:45 0° 171° (S) 3,251 6.6 -16.0°
Reaches altitude 10° 17:02:23 10° 161° (SSE) 2,325 5.8 -16.4°
Maximum altitude 17:06:54 30° 102° (ESE) 1,376 4.2 -17.0°
Enters shadow 17:07:18 29° 94° (E) 1,386 4.2 -17.1°
